Regional Weather Roundup
Issued by NWS

Home | Current Version | Previous Version | Graphics & Text | Print | Product List | Glossary On
Versions: 1 2 3 4 5 6 7 8 9 10 11 12 13 14 15 16 17 18 19 20 21 22 23 24 25 26 27 28 29 30 31 32 33 34 35 36 37 38 39 40 41 42 43 44 45 46 47 48 49 50
000
ASUS43 KLOT 230508
RWRIL

ILLINOIS REGIONAL WEATHER ROUNDUP
NATIONAL WEATHER SERVICE CHICAGO/ROMEOVILLE IL
1200 AM CDT MON APR 23 2018

NOTE: "FAIR" INDICATES FEW OR NO CLOUDS BELOW 12,000 FEET WITH NO
SIGNIFICANT WEATHER AND/OR OBSTRUCTIONS TO VISIBILITY.

* THESE STATIONS ARE NOT UNDER NWS QUALITY CONTROL. THEY ALSO MAY NOT
  REPORT WEATHER SUCH AS PRECIPITATION OR FOG.

ILZ001-002-007-009-015-016-024-230600-
NORTHWEST ILLINOIS

CITY           SKY/WX    TMP DP  RH WIND       PRES   REMARKS
MOLINE         FAIR      53  27  36 E12       30.19S
STERLING*      FAIR      48  29  47 E14       30.22R
SAVANNA*       FAIR      48  29  47 E10       30.21S
$$

ILZ003-004-008-010-011-017-018-230600-
NORTH CENTRAL ILLINOIS

CITY           SKY/WX    TMP DP  RH WIND       PRES   REMARKS
ROCKFORD       MOCLDY    47  26  44 E10       30.25F
FREEPORT*      FAIR      43  29  58 E6        30.25S
ROCHELLE*      FAIR      45  28  52 NE12      30.23F
DE KALB*       FAIR      45  28  51 NE9       30.24S
PERU*          FAIR      49  31  49 E10       30.21S
$$

ILZ005-006-012>014-019>023-230600-
NORTHEAST ILLINOIS

CITY           SKY/WX    TMP DP  RH WIND       PRES   REMARKS
CHICAGO-OHARE  MOCLDY    45  28  51 NE8       30.23S
CHICAGO-MIDWAY MOCLDY    47  31  53 E8        30.24S
AURORA         FAIR      46  28  49 NE10      30.23S
LANSING*       FAIR      41  36  81 NE5       30.24S
JOLIET*        FAIR      47  31  52 N3        30.23S
WAUKEGAN       FAIR      45  26  47 NE6       30.24F
DUPAGE AIRPORT FAIR      42  29  59 NE7       30.23S
KANKAKEE*      FAIR      41  32  69 NE5       30.22S
WHEELING       FAIR      46  29  51 NE7       30.26F
MORRIS*        FAIR      44  31  59 NE6       30.21S
ROMEOVILLE*    FAIR      44  30  58 E5        30.24R
NORTHERLY ISL    N/A     42  34  73 NE9         N/A
$$

LMZ740>746-230600-
SOUTHERN LAKE MICHIGAN

STATION/POSITION SKY/WX   TEMP    WIND        PRES    VSBY  WAVE
                          AIR SEA DIR/SP/G                  HT/PER
                          (F)     (DEG/KT/KT) (MB)    (MI)  (FT/S)
HARRISON CRIB              44      60/ 14/ 15   N/A
BURNHAM HARBOR             42      40/  7/  9   N/A
CALUMET HARBOR             42      40/  7/ 10 1023.2S
BURNS HARBOR               42      80/  8/ 10 1024.4S
MICHIGAN CITY              51      80/  9/ 11   N/A
$$

ILZ025>027-034>036-040-047-049-050-058-095>099-230600-
WEST-CENTRAL ILLINOIS

CITY           SKY/WX    TMP DP  RH WIND       PRES   REMARKS
QUINCY         CLOUDY    55  31  39 NE10      30.10S
GALESBURG*     FAIR      54  32  43 NE12      30.18S
MACOMB*        CLOUDY    48  32  53 NE12      30.17S
JACKSONVILLE*  CLOUDY    55  32  42 NE8       30.09F
PITTSFIELD*    CLOUDY    58  33  38 NE8       30.10S
$$

ILZ028>032-037-038-041>044-048-051>054-059>061-230600-
CENTRAL ILLINOIS

CITY           SKY/WX    TMP DP  RH WIND       PRES   REMARKS
PONTIAC        FAIR      46  33  59 NE15      30.20S
BLOOMINGTON    FAIR      47  33  58 NE13      30.17S
DECATUR        FAIR      55  32  41 E15       30.10F
PEORIA         FAIR      52  30  43 E12       30.17S
LACON*         FAIR      49  28  44 NE10      30.18F
LINCOLN*       FAIR      55  34  44 NE15      30.13F
SPRINGFIELD    MOCLDY    58  34  40 NE14      30.10F
TAYLORVILLE    CLOUDY    58  33  38 NE16G23   30.08F
$$

ILZ033-039-045-046-055>057-062-063-230600-
EAST-CENTRAL ILLINOIS

CITY           SKY/WX    TMP DP  RH WIND       PRES   REMARKS
CHAMPAIGN      FAIR      54  33  45 NE15      30.13F
DANVILLE*      FAIR      52  31  45 NE12      30.13F
RANTOUL*       FAIR      52  34  50 NE15      30.15F
MATTOON        CLOUDY    57  35  43 E17G24    30.08F
PARIS*         CLOUDY    55  34  45 NE17      30.12S
$$

ILZ079-100>102-230600-
SOUTHWEST ILLINOIS

CITY           SKY/WX    TMP DP  RH WIND       PRES   REMARKS
ALTON          CLOUDY    57  44  63 NE8       30.05S
BELLEVILLE     LGT RAIN  57  50  77 E8        30.02F
CAHOKIA*       CLOUDY    56  49  77 NE9       30.03F
SPARTA*        LGT RAIN  55  55 100 NE9       30.01F
$$

ILZ064>066-069>071-074>076-080>082-084>086-088>090-092>094-230600-
SOUTH-CENTRAL ILLINOIS

CITY           SKY/WX    TMP DP  RH WIND       PRES   REMARKS
CARBONDALE     LGT RAIN  56  54  93 NE12      29.97F
CAIRO*         HVY RAIN  57  56  99 NE12      29.89F
EFFINGHAM*     CLOUDY    60  35  38 NE6       30.07F
MARION         LGT RAIN  55  55  98 NE9       29.98F
MT. VERNON     LGT RAIN  56  50  80 NE8       30.02F
CENTRALIA*     CLOUDY    58  46  64 NE8       30.02F
SALEM*         DRIZZLE   60  38  45 NE8       30.03F
METROPOLIS*    RAIN      58  56  94 NE10      29.91F
$$

ILZ067-068-072-073-078-083-087-091-230600-
SOUTHEAST ILLINOIS

CITY           SKY/WX    TMP DP  RH WIND       PRES   REMARKS
LAWRENCEVILLE  CLOUDY    60  34  37 NE12      30.05F
FLORA*         CLOUDY    60  38  45 NE9       30.04F
FAIRFIELD*     DRIZZLE   57  46  66 NE7       30.03S
HARRISBURG*    LGT RAIN  56  54  93 NE13      29.99F
ROBINSON*      CLOUDY    59  32  35 NE10G17   30.07F
CARMI*         LGT RAIN  55  48  77 NE9       30.01F
$$

ABBREVIATIONS USED IN REMARKS
   TC - TEMPERATURE IN CELSIUS
  WCI - WIND CHILL INDEX
   HX - HEAT INDEX
  VSB - VISIBILITY
$$





USA.gov is the U.S. government's official web portal to all federal, state and local government web resources and services.